Regional Weather Roundup
Issued by NWS

Home | Current Version | Previous Version | Text Only | Print | Product List | Glossary Off
Versions: 1 2 3 4 5 6 7 8 9 10 11 12 13 14 15 16 17 18 19 20 21 22 23 24 25 26 27 28 29 30 31 32 33 34 35 36 37 38 39 40 41 42 43 44 45 46 47 48 49 50

000
ASUS45 KBOU 272207
RWRCO

WEATHER ROUNDUP FOR COLORADO
NATIONAL WEATHER SERVICE DENVER/BOULDER CO
400 PM MDT MON APR 27 2015

NOTE: "FAIR" INDICATES FEW OR NO CLOUDS BELOW 12000 FEET WITH NO
SIGNIFICANT WEATHER AND/OR OBSTRUCTIONS TO VISIBILITY.

COZ001>005-013-030-031-272300-
...NORTHWEST COLORADO...

CITY           SKY/WX    TMP DP  RH WIND       PRES   REMARKS
CRAIG          PTSUNNY   55  38  52 N15       30.16F
HAYDEN         CLOUDY    57  37  47 W10G18    30.15F
MEEKER         CLOUDY    52  39  61 W8        30.17F
MOUNT WERNER   NOT AVBL
STEAMBOAT SPGS CLOUDY    53  35  50 NW15G22   30.15S
WALDEN         CLOUDY    54  30  40 E9        30.20F
$$

COZ006>008-011-272300-
...WEST CENTRAL VALLEYS...

CITY           SKY/WX    TMP DP  RH WIND       PRES   REMARKS
GRAND JUNCTION MOSUNNY   63  42  46 W12G18    30.07F
MONTROSE       MOSUNNY   62  36  37 NW12      30.09F
EAGLE          PTSUNNY   57  36  44 N15G21    30.13S
RIFLE          MOSUNNY   64  38  38 NW20G26   30.08F
DELTA          MOSUNNY   63  37  36 MISG      30.07F
NUCLA          MOSUNNY   64  32  29 NW8       30.10F
$$

COZ017>023-064>068-272300-
...SOUTHWEST COLORADO...

CITY           SKY/WX    TMP DP  RH WIND       PRES   REMARKS
DURANGO        LGT RAIN  54  41  61 SE9       30.07R
CORTEZ         PTSUNNY   65  31  28 W13G20    30.03F
PAGOSA SPRINGS CLOUDY    57  24  28 NW10      30.09S
TELLURIDE      CLOUDY    53  31  43 W13       30.16S
WOLF CREEK PAS NOT AVBL
$$

COZ009-010-012-014-032>034-037-058>063-272300-
...CENTRAL COLORADO...

CITY           SKY/WX    TMP DP  RH WIND       PRES   REMARKS
ASPEN          PTSUNNY   51  30  44 VRB3      30.13S
BUENA VISTA    MOSUNNY   47  29  49 E8        30.23F
COPPER MTN     PTSUNNY   36  25  64 SE6       30.31S
BERTHOUD PASS  HAZE      25  16  68 E15G29    30.35S VSB<1/4 WCI  12
COTTONWOOD PAS CLOUDY    37  32  81 S5        30.28S
GUNNISON       PTSUNNY   54  27  35 NE7       30.15S
KREMMLING      CLOUDY    45  36  70 S10       30.20R
LEADVILLE      LGT RAIN  37  26  64 S6        30.23F
SALIDA         CLOUDY    48  36  64 SE7       30.29F
SUNLIGHT       LGT SNOW  34  34 100 N6        30.30S WCI  29
WILKERSON PASS FOG       30  28  93 E7        30.33R VSB<1/4 WCI  23
$$

COZ069>075-272300-
...SAN LUIS VALLEY/SANGRE DE CRISTO MOUNTAINS...

CITY           SKY/WX    TMP DP  RH WIND       PRES   REMARKS
ALAMOSA        MOSUNNY   55  24  30 NE20G25   30.12F
LA VETA PASS   SNOW      28  27  93 MISG      30.23S VSB<1/4
SAGUACHE       PTSUNNY   52  30  43 E14       30.15S
$$

COZ035-036-038>040-272300-
...NORTHERN COLORADO FRONT RANGE...

CITY           SKY/WX    TMP DP  RH WIND       PRES   REMARKS
DENVER INTL AP CLOUDY    43  39  86 N6        30.28S
DMNS CITY PARK   N/A     47  38  73 E6        30.27S
AURORA         CLOUDY    42  42 100 N7        30.28F
FRONT RANGE AP CLOUDY    45  43  93 NE5       30.28F
ERIE MUNI ARPT CLOUDY    48  40  75 NE5       30.28S
BOULDER MUN AP CLOUDY    48  39  71 N3        30.27S
CENTENNIAL     CLOUDY    43  39  86 N7        30.27F
BROOMFIELD     CLOUDY    46  39  76 VRB5      30.28S
FORT COLLINS   CLOUDY    48  39  71 E8        30.29F
LONGMONT       CLOUDY    50  41  72 NE7       30.29S
$$

COZ041-046-047-076>085-087-088-272300-
...PIKES PEAK/PALMER DIVIDE AND SOUTHERN FOOTHILLS...

CITY           SKY/WX    TMP DP  RH WIND       PRES   REMARKS
COLO. SPRINGS  LGT RAIN  46  36  68 N15       30.25F
A. F. ACADEMY  LGT RAIN  40  38  91 N9        30.26S
ELLICOTT       CLOUDY   N/A N/A N/A NE21      30.23F
FALCON         DRIZZLE   40  37  87 NE12      30.27S
FORT CARSON    PTSUNNY   47  37  69 N16G22    30.23S
LIMON          CLOUDY    49  33  54 N18       30.23F
MONUMENT HILL  LGT RAIN  37  36  93 N13       30.26S
TRINIDAD       CLOUDY    45  39  79 N17       30.20F
$$

COZ042>045-048>051-090-091-272300-
...NORTHEAST COLORADO...

CITY           SKY/WX    TMP DP  RH WIND       PRES   REMARKS
GREELEY ARPT   CLOUDY    46  37  71 SE3       30.30S
AKRON          PTSUNNY   53  35  50 N12       30.24S
BURLINGTON     MOSUNNY   57  32  38 NE23G30   30.19F
WRAY           CLOUDY    60  32  34 N13G20    30.21F
STERLING       PTSUNNY   55  37  50 N10       30.23F
HOLYOKE        CLOUDY    61  36  39 N9        30.23S
FORT MORGAN    CLOUDY    54  35  49 N8        30.26F
$$

COZ086-089-092>099-272300-
...SOUTHEAST COLORADO...

CITY           SKY/WX    TMP DP  RH WIND       PRES   REMARKS
PUEBLO         PTSUNNY   53  39  59 N17       30.22F
LA JUNTA       PTSUNNY   58  33  39 NE18G30   30.16F
LAMAR          CLOUDY    56  31  38 NE17G28   30.14S
SPRINGFIELD      N/A     47  34  60 NE21G26   30.13S
$$



USA.gov is the U.S. government's official web portal to all federal, state and local government web resources and services.